Flag for U.S.A. Weather past 2 weeks in Lakeland, Florida, U.S.A.

Now
75 °F

Passing clouds.


Feels Like: 73 °F
Forecast: 76 / 87 °F
Wind: No wind

Location: Lakeland Regional

Current Time: Jul 29, 2015 at 6:33:20 AM

Latest Report: Jul 29, 2015 at 5:55 AM


Visibility: 7 mi

Pressure: 29.95 "Hg

Humidity: 100%

Dew point: 75 °F

Location of LakelandLocation

Historic Weather in Lakeland — Graph

°F

Lakeland temperature yesterday

Maximum temperature yesterday: 86 °F (at 1:50 PM)
Minimum temperature yesterday: 75 °F (at 1:55 AM)
Average temperature yesterday: 78 °F

Past Weeks' High & Low Weather Summary

 TemperatureHumidityPressure
High91 °F (Jul 20, 1:50 PM)100% (Jul 18, 5:54 AM)30.08 "Hg (Jul 18, 5:54 AM)
Low72 °F (Jul 26, 1:15 AM)56% (Jul 20, 1:50 PM)29.86 "Hg (Jul 26, 3:55 AM)
Average78 °F89%29.99 "Hg
* Reported Jul 14 5:15 AM — Jul 29 5:15 AM, Lakeland, Weather by CustomWeather, © 2015

Note: Actual official high and low records may vary slightly from our data, if they occured in-between our weather recording intervals... More about our weather records

Advertising

Lakeland weather history for previous 24 hours

 ConditionsComfort  
Time TempWeatherWind HumidityBarometerVisibility
5:15 AM
Wed, Jul 29
77 °FOvercast.No wind94%29.95 "Hg10 mi
4:55 AM77 °FPartly cloudy.No wind94%29.95 "Hg10 mi
4:15 AM75 °FFog.No wind100%29.96 "Hg5 mi
3:35 AM75 °FFog.No wind100%29.95 "Hg4 mi
3:15 AM75 °FFog.3 mph100%29.95 "Hg4 mi
2:55 AM77 °FClear.3 mph100%29.95 "Hg7 mi
2:35 AM77 °FClear.5 mph100%29.96 "Hg7 mi
2:15 AM77 °FFog.No wind100%29.97 "Hg5 mi
1:55 AM77 °FFog.No wind100%29.98 "Hg5 mi
1:35 AM77 °FFog.3 mph100%29.98 "Hg4 mi
1:15 AM77 °FFog.3 mph100%29.98 "Hg4 mi
12:55 AM77 °FFog.No wind100%29.98 "Hg5 mi
12:35 AM77 °FFog.No wind100%29.98 "Hg5 mi
11:55 PM
Tue, Jul 28
77 °FPassing clouds.No wind100%29.99 "Hg7 mi
10:55 PM77 °FLight rain. Mostly cloudy.5 mph100%30.00 "Hg10 mi
10:35 PM77 °FLight rain. Overcast.No wind100%30.00 "Hg10 mi
10:15 PM77 °FLight rain. Passing clouds.5 mph100%30.00 "Hg10 mi
9:46 PM79 °FLight rain. Partly cloudy.5 mph94%29.99 "Hg10 mi
8:52 PM79 °FBroken clouds.5 mph94%29.98 "Hg10 mi
7:50 PM81 °FScattered clouds.5 mph89%29.96 "Hg10 mi
6:45 PM81 °FBroken clouds.7 mph84%29.95 "Hg10 mi
5:50 PM81 °FBroken clouds.5 mph94%29.95 "Hg10 mi
4:50 PM81 °FBroken clouds.No wind89%29.96 "Hg10 mi
3:53 PM79 °FBroken clouds.5 mph94%29.97 "Hg10 mi
2:45 PM79 °FScattered showers. Cloudy.6 mph89%29.98 "Hg7 mi
1:50 PM86 °FBroken clouds.14 mph70%29.98 "Hg7 mi
12:50 PM84 °FBroken clouds.9 mph74%29.98 "Hg7 mi
11:50 AM84 °FScattered showers. Partly sunny.12 mph74%29.99 "Hg7 mi
10:55 AM81 °FScattered showers. Broken clouds.8 mph89%30.00 "Hg7 mi
9:52 AM79 °FScattered showers. Partly sunny.7 mph94%30.00 "Hg7 mi
8:52 AM77 °FScattered showers. Broken clouds.7 mph94%29.99 "Hg10 mi
7:50 AM75 °FBroken clouds.6 mph100%29.98 "Hg10 mi
6:50 AM75 °FScattered showers. Overcast.5 mph100%29.96 "Hg7 mi
Weather by CustomWeather, © 2015

See weather overviewHow to use our weather pages